TimeEST,TemperatureF,Dew PointF,Humidity,Sea Level PressureIn,VisibilityMPH,Wind Direction,Wind SpeedMPH,Gust SpeedMPH,PrecipitationIn,Events,Conditions,WindDirDegrees,DateUTC
12:06 AM,33.8,32.0,93,30.16,9.0,NNE,9.2,-,0.00,Snow,Light Snow,30,2013-03-06 05:06:00
12:53 AM,34.0,30.9,89,30.18,9.0,NE,11.5,-,0.00,Snow,Light Snow,40,2013-03-06 05:53:00
1:29 AM,33.8,30.2,87,30.19,9.0,NNE,9.2,-,0.00,Snow,Light Snow,30,2013-03-06 06:29:00
1:53 AM,33.1,30.9,92,30.19,9.0,NNE,9.2,-,0.00,Snow,Light Snow,30,2013-03-06 06:53:00
2:23 AM,33.8,30.2,87,30.19,7.0,NE,10.4,-,0.00,Snow,Light Snow,50,2013-03-06 07:23:00
2:53 AM,33.1,30.9,92,30.21,8.0,NE,12.7,-,0.00,Snow,Light Snow,40,2013-03-06 07:53:00
3:32 AM,33.8,30.2,87,30.21,9.0,NE,15.0,-,0.00,Snow,Light Snow,40,2013-03-06 08:32:00
3:53 AM,33.1,30.0,89,30.22,9.0,NE,10.4,-,0.00,Snow,Light Snow,40,2013-03-06 08:53:00
4:53 AM,33.1,30.0,89,30.24,9.0,NNE,12.7,-,0.00,Snow,Light Snow,30,2013-03-06 09:53:00
5:53 AM,32.0,28.9,88,30.26,10.0,NE,10.4,-,0.00,,Mostly Cloudy,40,2013-03-06 10:53:00
6:53 AM,30.9,28.0,89,30.26,10.0,NNE,11.5,-,N/A,,Scattered Clouds,30,2013-03-06 11:53:00
7:25 AM,32.0,28.4,87,30.26,10.0,NE,10.4,-,N/A,,Overcast,40,2013-03-06 12:25:00
7:53 AM,32.0,28.0,85,30.27,10.0,NNE,10.4,-,N/A,,Overcast,30,2013-03-06 12:53:00
8:53 AM,33.1,28.0,82,30.28,9.0,NE,10.4,-,0.00,Snow,Light Snow,40,2013-03-06 13:53:00
9:53 AM,35.1,28.0,76,30.28,10.0,ENE,13.8,24.2,0.00,,Overcast,60,2013-03-06 14:53:00
10:53 AM,36.0,27.0,70,30.27,9.0,ENE,12.7,20.7,0.00,,Overcast,70,2013-03-06 15:53:00
11:45 AM,37.4,26.6,65,30.28,9.0,NE,11.5,19.6,0.00,,Overcast,50,2013-03-06 16:45:00
11:53 AM,37.0,25.0,62,30.29,10.0,East,16.1,23.0,0.00,,Overcast,80,2013-03-06 16:53:00
12:53 PM,36.0,26.1,67,30.28,9.0,ENE,11.5,20.7,0.00,Snow,Light Snow,60,2013-03-06 17:53:00
1:53 PM,35.1,26.1,70,30.28,8.0,ENE,15.0,20.7,0.00,Snow,Light Snow,70,2013-03-06 18:53:00
2:53 PM,34.0,27.0,75,30.27,6.0,East,15.0,-,0.00,Snow,Light Snow,80,2013-03-06 19:53:00
3:13 PM,33.8,28.4,81,30.27,1.8,NE,12.7,18.4,0.00,Snow,Light Snow,50,2013-03-06 20:13:00
3:23 PM,32.0,28.4,87,30.27,1.0,ENE,11.5,23.0,0.00,Snow,Light Snow,60,2013-03-06 20:23:00
3:27 PM,32.0,28.4,87,30.27,3.0,ENE,16.1,23.0,0.00,Snow,Light Snow,60,2013-03-06 20:27:00
3:34 PM,32.0,28.4,87,30.28,2.0,ENE,15.0,25.3,0.00,Snow,Light Snow,60,2013-03-06 20:34:00
3:53 PM,32.0,28.9,88,30.29,1.0,NE,13.8,21.9,0.00,Snow,Light Snow,50,2013-03-06 20:53:00
4:08 PM,32.0,28.4,87,30.28,8.0,ENE,10.4,-,0.01,Snow,Light Snow,60,2013-03-06 21:08:00
4:53 PM,33.1,26.1,75,30.29,10.0,NE,13.8,-,0.01,,Overcast,50,2013-03-06 21:53:00
5:17 PM,33.8,26.6,75,30.29,10.0,NE,10.4,-,N/A,,Overcast,50,2013-03-06 22:17:00
5:53 PM,33.1,25.0,72,30.31,10.0,NE,9.2,-,N/A,,Overcast,50,2013-03-06 22:53:00
6:53 PM,33.1,24.1,70,30.32,10.0,ENE,9.2,-,N/A,,Overcast,60,2013-03-06 23:53:00
7:53 PM,32.0,24.1,73,30.32,10.0,NE,9.2,-,N/A,,Overcast,40,2013-03-07 00:53:00
8:53 PM,32.0,21.9,66,30.30,10.0,NE,13.8,-,N/A,,Overcast,40,2013-03-07 01:53:00
9:53 PM,32.0,21.9,66,30.29,10.0,NNE,12.7,21.9,N/A,,Overcast,30,2013-03-07 02:53:00
10:53 PM,30.9,21.0,67,30.27,10.0,NE,15.0,23.0,N/A,,Overcast,40,2013-03-07 03:53:00
11:53 PM,30.9,21.0,67,30.26,10.0,NE,12.7,-,N/A,,Overcast,40,2013-03-07 04:53:00